Sable Island, Nova Scotia

1:20 AM AST on December 04, 2016 (GMT -0400)
Sable Island

Weather History for CWSA - December, 2013

Change the Weather History Date:

Tuesday, December 17, 2013

  Actual Average Record
Temperature  
Mean Temperature 22 °F -  
Max Temperature 28 °F 41 °F 51 °F (1999)
Min Temperature 14 °F 32 °F 14 °F (2013)
Degree Days  
Heating Degree Days 44    
Moisture  
Dew Point 13 °F    
Average Humidity 58    
Maximum Humidity 79    
Minimum Humidity 39    
Precipitation  
Precipitation 0.02 in - - ()
Sea Level Pressure  
Sea Level Pressure 30.17 in    
Wind  
Wind Speed 18 mph ()    
Max Wind Speed 31 mph    
Max Gust Speed 45 mph    
Visibility 8.4 miles    
Events Snow    
Averages and records for this station are not official NWS values.
T = Trace of Precipitation, MM = Missing Value Source: Averaged Metar Reports

Daily Weather History Graph

Daily Weather History Graph

Search for Another Location

Airport or City:

Trip Planner

Search our weather history database for the weather conditions in past years. The results will help you decide how hot, cold, wet, or windy it might be!

Date:

Astronomy

Dec. 17, 2013 Rise Set
Actual Time 7:29 AM AST 4:23 PM AST
Civil Twilight 6:56 AM AST 4:56 PM AST
Nautical Twilight 6:19 AM AST 5:33 PM AST
Astronomical Twilight 5:44 AM AST 6:08 PM AST
Moon 5:01 PM AST (12/17) 7:19 AM AST (12/17)
Length of Visible Light 10h 00m
Length of Day
8h 54m
Full, 100% of the Moon is Illuminated
Dec 17
Full
Dec 25
Last Quarter
Jan 1
New
Jan 7
First Quarter
Jan 16
Full

Hourly Weather History & Observations

Time (AST) Temp. Windchill Dew Point Humidity Pressure Visibility Wind Dir Wind Speed Gust Speed Precip Events Conditions
12:00 AM 30.2 °F 16.2 °F 12.2 °F 47% 29.88 in 9.0 mi West 25.3 mph 39.1 mph N/A   Partly Cloudy
1:00 AM 28.4 °F 15.1 °F 17.6 °F 64% 29.90 in 6.0 mi West 20.7 mph 39.1 mph N/A   Partly Cloudy
1:07 AM 28.4 °F 13.0 °F 19.4 °F 69% 29.90 in 4.0 mi WNW 28.8 mph 44.9 mph N/A Snow Light Snow
1:09 AM 28.4 °F 13.3 °F 19.4 °F 69% 29.90 in 3.0 mi WNW 27.6 mph 44.9 mph N/A Snow Light Snow
1:20 AM 28.4 °F 13.0 °F 17.6 °F 64% 29.91 in 7.0 mi WNW 28.8 mph 39.1 mph N/A   Mostly Cloudy
1:49 AM 26.6 °F 10.3 °F 15.8 °F 64% 29.93 in 9.0 mi WNW 29.9 mph 36.8 mph N/A   Scattered Clouds
2:00 AM 27 °F - 14 °F 44% 29.95 in 9 mi WNW 27.6 mph - - Snow Light Snow
2:00 AM 26.6 °F 10.0 °F 14.0 °F 59% 29.95 in 9.0 mi WNW 31.1 mph 40.3 mph N/A   Scattered Clouds
3:00 AM 26.6 °F 11.4 °F 15.8 °F 64% 29.99 in 9.0 mi West 25.3 mph 33.4 mph N/A   Scattered Clouds
4:00 AM 24.8 °F 8.7 °F 10.4 °F 54% 30.01 in 9.0 mi WNW 26.5 mph 38.0 mph N/A   Partly Cloudy
4:42 AM 24.8 °F 10.0 °F 14.0 °F 64% 30.05 in 8.0 mi WNW 21.9 mph 32.2 mph N/A Snow Light Snow
5:00 AM 24 °F - 12 °F 48% 30.05 in 5 mi WNW 20.7 mph - - Snow Light Snow
5:00 AM 24.8 °F 10.3 °F 12.2 °F 59% 30.05 in 5.0 mi WNW 20.7 mph 32.2 mph N/A Snow Light Snow
5:11 AM 24.8 °F 9.6 °F 10.4 °F 54% 30.06 in 9.0 mi WNW 23.0 mph 31.1 mph N/A   Mostly Cloudy
5:24 AM 24.8 °F 9.3 °F 12.2 °F 59% 30.06 in 8.0 mi WNW 24.2 mph 33.4 mph N/A Snow Light Snow
5:40 AM 24.8 °F 10.3 °F 10.4 °F 54% 30.07 in 9.0 mi WNW 20.7 mph 27.6 mph N/A   Mostly Cloudy
6:00 AM 24.8 °F 10.3 °F 10.4 °F 54% 30.09 in 9.0 mi WNW 20.7 mph 29.9 mph N/A   Partly Cloudy
6:09 AM 24.8 °F 11.5 °F 10.4 °F 54% 30.09 in 9.0 mi WNW 17.3 mph 25.3 mph N/A Snow Light Snow
6:10 AM 24.8 °F 10.7 °F 12.2 °F 59% 30.09 in 9.0 mi WNW 19.6 mph 28.8 mph N/A   Partly Cloudy
6:29 AM 24.8 °F 11.5 °F 10.4 °F 54% 30.11 in 9.0 mi WNW 17.3 mph 27.6 mph N/A Snow Light Snow
6:48 AM 24.8 °F 11.1 °F 14.0 °F 64% 30.12 in 4.0 mi WNW 18.4 mph - N/A Snow Light Snow
7:00 AM 24.8 °F 10.7 °F 14.0 °F 64% 30.13 in 6.0 mi WNW 19.6 mph 28.8 mph N/A Snow Light Snow
7:11 AM 24.8 °F 10.0 °F 12.2 °F 59% 30.13 in 9.0 mi WNW 21.9 mph - N/A   Mostly Cloudy
7:13 AM 24.8 °F 11.1 °F 10.4 °F 54% 30.13 in 9.0 mi WNW 18.4 mph 24.2 mph N/A Snow Light Snow
7:18 AM 24.8 °F 11.5 °F 14.0 °F 64% 30.13 in 9.0 mi NW 17.3 mph 24.2 mph N/A Snow Light Snow
7:24 AM 24.8 °F 11.1 °F 10.4 °F 54% 30.13 in 9.0 mi WNW 18.4 mph 24.2 mph N/A   Partly Cloudy
7:59 AM 24.8 °F 11.5 °F 14.0 °F 64% 30.15 in 6.0 mi WNW 17.3 mph 23.0 mph N/A Snow Light Snow
8:00 AM 24 °F - 15 °F 56% 30.16 in 5 mi WNW 17.3 mph - - Snow Light Snow
8:00 AM 24.8 °F 11.5 °F 14.0 °F 64% 30.16 in 5.0 mi NW 17.3 mph 23.0 mph N/A Snow Light Snow
8:03 AM 24.8 °F 12.9 °F 14.0 °F 64% 30.15 in 5.0 mi WNW 13.8 mph 23.0 mph N/A Snow Light Snow
8:16 AM 24.8 °F 10.7 °F 12.2 °F 59% 30.16 in 9.0 mi WNW 19.6 mph - N/A   Mostly Cloudy
8:23 AM 24.8 °F 11.5 °F 10.4 °F 54% 30.16 in 9.0 mi WNW 17.3 mph 24.2 mph N/A Snow Light Snow
8:25 AM 24.8 °F 11.1 °F 12.2 °F 59% 30.16 in 9.0 mi WNW 18.4 mph 24.2 mph N/A   Mostly Cloudy
8:28 AM 24.8 °F 11.9 °F 12.2 °F 59% 30.17 in 9.0 mi WNW 16.1 mph 24.2 mph N/A   Mostly Cloudy
8:53 AM 24.8 °F 10.7 °F 12.2 °F 59% 30.18 in 9.0 mi WNW 19.6 mph - N/A Snow Light Snow
9:00 AM 24.8 °F 11.9 °F 10.4 °F 54% 30.18 in 8.0 mi WNW 16.1 mph 21.9 mph N/A Snow Light Snow
9:08 AM 24.8 °F 10.7 °F 12.2 °F 59% 30.18 in 9.0 mi WNW 19.6 mph - N/A   Mostly Cloudy
9:35 AM 26.6 °F 13.4 °F 14.0 °F 59% 30.20 in 9.0 mi WNW 18.4 mph 24.2 mph N/A Snow Light Snow
9:45 AM 26.6 °F 15.2 °F 14.0 °F 59% 30.20 in 9.0 mi WNW 13.8 mph 20.7 mph N/A   Mostly Cloudy
10:00 AM 26.6 °F 13.1 °F 12.2 °F 55% 30.21 in 9.0 mi WNW 19.6 mph - N/A   Mostly Cloudy
10:50 AM 26.6 °F 14.3 °F 14.0 °F 59% 30.21 in 9.0 mi West 16.1 mph - N/A Snow Light Snow
11:00 AM 28 °F - 13 °F 39% 30.22 in 9 mi WNW 13.8 mph - - Snow Light Snow
11:00 AM 28.4 °F 17.5 °F 12.2 °F 51% 30.22 in 9.0 mi West 13.8 mph - N/A   Overcast
11:02 AM 28.4 °F 17.5 °F 12.2 °F 51% 30.22 in 9.0 mi West 13.8 mph - N/A Snow Light Snow
11:04 AM 26.6 °F 15.2 °F 12.2 °F 55% 30.22 in 9.0 mi WNW 13.8 mph - N/A   Overcast
11:09 AM 26.6 °F 14.7 °F 14.0 °F 59% 30.22 in 9.0 mi West 15.0 mph 20.7 mph N/A Snow Light Snow
11:13 AM 26.6 °F 14.7 °F 14.0 °F 59% 30.22 in 9.0 mi WNW 15.0 mph 20.7 mph N/A   Overcast
11:15 AM 26.6 °F 15.2 °F 14.0 °F 59% 30.22 in 9.0 mi WNW 13.8 mph 20.7 mph N/A Snow Light Snow
11:16 AM 26.6 °F 15.2 °F 14.0 °F 59% 30.22 in 9.0 mi WNW 13.8 mph 20.7 mph N/A   Overcast
11:36 AM 26.6 °F 14.7 °F 15.8 °F 64% 30.22 in 9.0 mi WNW 15.0 mph - N/A Snow Light Snow
12:00 PM 26.6 °F 15.7 °F 14.0 °F 59% 30.22 in 9.0 mi WNW 12.7 mph 18.4 mph N/A Snow Light Snow
12:02 PM 26.6 °F 16.2 °F 14.0 °F 59% 30.21 in 9.0 mi WNW 11.5 mph 18.4 mph N/A   Overcast
12:03 PM 28.4 °F 17.0 °F 15.8 °F 59% 30.21 in 9.0 mi West 15.0 mph 21.9 mph N/A Snow Light Snow
12:07 PM 26.6 °F 15.2 °F 14.0 °F 59% 30.21 in 9.0 mi West 13.8 mph 21.9 mph N/A   Overcast
12:55 PM 26.6 °F 16.2 °F 14.0 °F 59% 30.21 in 9.0 mi WNW 11.5 mph 23.0 mph N/A Snow Light Snow
12:56 PM 26.6 °F 15.7 °F 14.0 °F 59% 30.21 in 9.0 mi WNW 12.7 mph 19.6 mph N/A   Overcast
1:00 PM 28.4 °F 17.0 °F 14.0 °F 55% 30.21 in 9.0 mi WNW 15.0 mph - N/A   Overcast
2:00 PM 28 °F - 13 °F 40% 30.23 in 9 mi West 12.7 mph - -   Overcast
2:00 PM 28.4 °F 18.0 °F 14.0 °F 55% 30.23 in 9.0 mi West 12.7 mph - N/A   Overcast
3:00 PM 26.6 °F 15.7 °F 14.0 °F 59% 30.25 in 9.0 mi West 12.7 mph 18.4 mph N/A   Overcast
3:17 PM 26.6 °F 17.5 °F 15.8 °F 64% 30.25 in 9.0 mi WNW 9.2 mph - N/A   Overcast
3:49 PM 26.6 °F 16.8 °F 15.8 °F 64% 30.26 in 8.0 mi West 10.4 mph - N/A   Overcast
4:00 PM 26.6 °F 15.2 °F 14.0 °F 59% 30.27 in 9.0 mi WNW 13.8 mph - N/A   Overcast
4:07 PM 26.6 °F 16.8 °F 14.0 °F 59% 30.27 in 9.0 mi WNW 10.4 mph - N/A   Overcast
4:54 PM 26.6 °F 15.2 °F 14.0 °F 59% 30.27 in 9.0 mi WNW 13.8 mph - N/A   Overcast
5:00 PM 26 °F - 13 °F 43% 30.27 in 9 mi WNW 10.4 mph - -   Overcast
5:00 PM 26.6 °F 18.2 °F 12.2 °F 55% 30.27 in 9.0 mi West 8.1 mph - N/A   Overcast
5:56 PM 26.6 °F 18.2 °F 14.0 °F 59% 30.29 in 9.0 mi West 8.1 mph - N/A   Mostly Cloudy
6:00 PM 26.6 °F 19.1 °F 14.0 °F 59% 30.30 in 9.0 mi West 6.9 mph - N/A   Mostly Cloudy
6:25 PM 26.6 °F 17.5 °F 14.0 °F 59% 30.31 in 9.0 mi WNW 9.2 mph - N/A   Mostly Cloudy
7:00 PM 26.6 °F 19.1 °F 14.0 °F 59% 30.34 in 9.0 mi West 6.9 mph - N/A   Mostly Cloudy
7:48 PM 26.6 °F 19.1 °F 12.2 °F 55% 30.35 in 9.0 mi West 6.9 mph - N/A   Overcast
8:00 PM 26 °F - 13 °F 45% 30.35 in 9 mi West 3.5 mph - -   Overcast
8:00 PM 26.6 °F - 14.0 °F 59% 30.35 in 9.0 mi West 2.3 mph - N/A   Overcast
8:19 PM 26.6 °F 21.2 °F 14.0 °F 59% 30.34 in 9.0 mi West 4.6 mph - N/A   Overcast
9:00 PM 24.8 °F 20.5 °F 12.2 °F 59% 30.32 in 9.0 mi West 3.5 mph - N/A   Scattered Clouds
10:00 PM 17.6 °F - 10.4 °F 73% 30.32 in 9.0 mi Calm Calm - N/A   Clear
11:00 PM 15 °F - 8 °F 62% 30.31 in 9 mi ENE 2.3 mph - -  
11:00 PM 14.0 °F 8.2 °F 8.6 °F 79% 30.31 in 9.0 mi ENE 3.5 mph - N/A   Clear